Newton, KS

2:03 PM CDT on September 18, 2019 (GMT -0500)
Newton City County

Weather History for KEWK - July, 2019

Change the Weather History Date:

Thursday, July 25, 2019

  Actual Average Record
Temperature  
Mean Temperature 75 °F -  
Max Temperature 88 °F 88 °F 105 °F (2012)
Min Temperature 62 °F 67 °F 57 °F (2004)
Cooling Degree Days 10    
Growing Degree Days 25 (Base 50)    
Moisture  
Dew Point 57 °F    
Average Humidity 56    
Maximum Humidity 84    
Minimum Humidity 35    
Precipitation  
Precipitation 0.00 in - - ()
Sea Level Pressure  
Sea Level Pressure 30.08 in    
Wind  
Wind Speed 12 mph (South)    
Max Wind Speed 21 mph    
Max Gust Speed 25 mph    
Visibility 10 miles    
Events      
Averages and records for this station are not official NWS values.
T = Trace of Precipitation, MM = Missing Value Source: NWS Daily Summary

Daily Weather History Graph

Daily Weather History Graph

Search for Another Location

Airport or City:

Astronomy

Jul. 25, 2019 Rise Set
Actual Time 6:26 AM CDT 8:44 PM CDT
Civil Twilight 5:56 AM CDT 9:14 PM CDT
Nautical Twilight 5:19 AM CDT 9:51 PM CDT
Astronomical Twilight 4:39 AM CDT 10:31 PM CDT
Moon 1:07 AM CDT (7/25) 2:30 PM CDT (7/25)
Length of Visible Light 15h 18m
Length of Day
14h 18m
Last Quarter, 44% of the Moon is Illuminated
Jul 25
Last Quarter
Jul 31
New
Aug 7
First Quarter
Aug 15
Full
Aug 23
Last Quarter

Hourly Weather History & Observations

Time (CDT) Temp. Heat Index Dew Point Humidity Pressure Visibility Wind Dir Wind Speed Gust Speed Precip Events Conditions
1:56 AM 64.0 °F - 55.9 °F 75% 30.10 in 10.0 mi SE 9.2 mph - N/A   Unknown
2:56 AM 63.0 °F - 55.9 °F 78% 30.10 in 10.0 mi SSE 8.1 mph - N/A   Unknown
3:56 AM 62.1 °F - 57.0 °F 84% 30.09 in 10.0 mi SSE 8.1 mph - N/A   Unknown
4:56 AM 62.1 °F - 57.0 °F 84% 30.09 in 10.0 mi SSE 9.2 mph - N/A   Unknown
5:56 AM 63.0 °F - 57.0 °F 81% 30.10 in 10.0 mi South 9.2 mph - N/A   Unknown
6:56 AM 63.0 °F - 57.9 °F 84% 30.12 in 10.0 mi SSE 8.1 mph - N/A   Clear
7:56 AM 64.9 °F - 57.9 °F 78% 30.13 in 10.0 mi SSE 8.1 mph - N/A   Clear
8:08 AM 66.2 °F - 59.0 °F 78% 30.16 in 10.0 mi SSE 9.2 mph - N/A   Partly Cloudy
8:56 AM 72.0 °F - 59.0 °F 64% 30.13 in 10.0 mi South 15.0 mph - N/A   Clear
9:56 AM 78.1 °F - 59.0 °F 52% 30.12 in 10.0 mi South 17.3 mph 24.2 mph N/A   Clear
10:56 AM 81.0 °F 81.3 °F 59.0 °F 47% 30.10 in 10.0 mi South 18.4 mph - N/A   Clear
11:56 AM 82.9 °F 82.8 °F 59.0 °F 44% 30.09 in 10.0 mi South 20.7 mph 25.3 mph N/A   Unknown
12:22 PM 84.2 °F 83.8 °F 59.0 °F 42% 30.13 in 10.0 mi South 20.7 mph 25.3 mph N/A   Partly Cloudy
12:56 PM 84.9 °F 84.4 °F 59.0 °F 41% 30.08 in 10.0 mi SSW 20.7 mph 25.3 mph N/A   Unknown
1:56 PM 87.1 °F 86.5 °F 59.0 °F 39% 30.07 in 10.0 mi SSW 19.6 mph 25.3 mph N/A   Unknown
2:56 PM 88.0 °F 86.7 °F 57.0 °F 35% 30.05 in 10.0 mi SSW 12.7 mph - N/A   Unknown
3:56 PM 86.0 °F 84.9 °F 57.0 °F 37% 30.04 in 10.0 mi South 20.7 mph - N/A   Unknown
4:56 PM 87.1 °F 85.9 °F 57.0 °F 36% 30.04 in 10.0 mi SSE 13.8 mph - N/A   Unknown
5:56 PM 86.0 °F 84.7 °F 55.9 °F 36% 30.04 in 10.0 mi SSE 10.4 mph - N/A   Unknown
6:56 PM 82.9 °F 82.4 °F 57.0 °F 41% 30.03 in 10.0 mi SSE 12.7 mph - N/A   Unknown
7:56 PM 81.0 °F 81.0 °F 57.0 °F 44% 30.04 in 10.0 mi SSE 11.5 mph - N/A   Unknown
8:56 PM 79.0 °F - 55.9 °F 45% 30.03 in 10.0 mi SSE 13.8 mph - N/A   Unknown
9:56 PM 75.9 °F - 57.0 °F 52% 30.04 in 10.0 mi SSE 13.8 mph - N/A   Unknown
10:56 PM 73.9 °F - 55.9 °F 53% 30.06 in 10.0 mi SSE 12.7 mph - N/A   Unknown
11:56 PM 73.0 °F - 55.9 °F 55% 30.06 in 10.0 mi South 12.7 mph - N/A   Unknown